• MPC Preparation (Info)

  • MPEC 2014-M16 : 2014 MY

    The following Minor Planet Electronic Circular may be linked-to from your own Web pages, but must not otherwise be redistributed electronically.

    A form allowing access to any MPEC is at the bottom of this page.


    Read MPEC 2014-M15 Read MPEC 2014-M17


    M.P.E.C. 2014-M16                                Issued 2014 June 20, 14:09 UT
    
         The Minor Planet Electronic Circulars contain information on unusual
             minor planets and routine data on comets.  They are published
       on behalf of Commission 20 of the International Astronomical Union by the
              Minor Planet Center, Smithsonian Astrophysical Observatory,
                              Cambridge, MA 02138, U.S.A.
    
                 Prepared using the Tamkin Foundation Computer Network
    
                                  MPC@CFA.HARVARD.EDU
                URL https://www.minorplanetcenter.net/    ISSN 1523-6714
    
                                        2014 MY
    
    Observations:
         K14M00Y* C2014 06 18.40002 17 42 10.61 +08 37 09.3          21.0 VqEM016G96
         K14M00Y  C2014 06 18.40461 17 42 13.26 +08 37 44.9          20.2 VqEM016G96
         K14M00Y  C2014 06 18.40920 17 42 15.94 +08 38 21.2          19.9 VqEM016G96
         K14M00Y  C2014 06 18.41379 17 42 18.58 +08 38 56.7          21.0 VqEM016G96
         K14M00Y  C2014 06 18.43675 17 42 32.06 +08 41 55.1          19.2 VqEM016G96
         K14M00Y  C2014 06 18.44292 17 42 35.67 +08 42 44.4          20.0 VqEM016G96
         K14M00Y  C2014 06 18.44891 17 42 39.15 +08 43 31.2          20.0 VqEM016G96
         K14M00Y  C2014 06 18.45520 17 42 42.86 +08 44 21.5          20.4 VqEM016G96
         K14M00Y KC2014 06 18.94826917 47 59.15 +09 50 00.5          20.2 VqEM016I93
         K14M00Y KC2014 06 18.95458917 48 03.03 +09 50 53.1          20.7 VqEM016I93
         K14M00Y KC2014 06 18.96153617 48 07.25 +09 51 49.1          20.4 VqEM016I93
         K14M00Y  C2014 06 19.25890 17 51 21.69 +10 32 53.8          21.1 VqEM016I52
         K14M00Y  C2014 06 19.25966 17 51 22.15 +10 33 00.6          22.5 VqEM016I52
         K14M00Y  C2014 06 19.26042 17 51 22.65 +10 33 07.0          20.7 VqEM016I52
         K14M00Y  C2014 06 19.26211 17 51 23.66 +10 33 21.2          21.4 VqEM016I52
         K14M00Y  C2014 06 19.26287 17 51 24.12 +10 33 27.2          20.9 VqEM016I52
         K14M00Y  C2014 06 19.26363 17 51 24.60 +10 33 34.1          20.4 VqEM016I52
         K14M00Y  C2014 06 19.26439 17 51 25.06 +10 33 40.0          20.5 VqEM016I52
         K14M00Y KC2014 06 19.26664 17 51 26.62 +10 33 59.2          20.8 RoEM016291
         K14M00Y KC2014 06 19.26738 17 51 27.05 +10 34 05.9          19.9 RoEM016291
         K14M00Y KC2014 06 19.26811 17 51 27.51 +10 34 11.9          20.2 RoEM016291
         K14M00Y FC2014 06 19.27035317 51 26.34 +10 34 17.7          20.4 VrEM016H21
         K14M00Y FC2014 06 19.27768217 51 30.92 +10 35 18.7          20.3 VrEM016H21
         K14M00Y KC2014 06 20.28544 18 03 10.85 +12 58 46.3          19.3 RoEM016291
         K14M00Y KC2014 06 20.28651 18 03 11.60 +12 58 55.1          19.8 RoEM016291
         K14M00Y KC2014 06 20.28761 18 03 12.35 +12 59 04.8          20.1 RoEM016291
         K14M00Y  C2014 06 20.29660 18 03 18.45 +13 00 23.4          21.3 VqEM016I52
         K14M00Y  C2014 06 20.29702 18 03 18.66 +13 00 26.9          21.5 VqEM016I52
         K14M00Y  C2014 06 20.29784 18 03 19.20 +13 00 33.2          20.7 VqEM016I52
    
    Observer details:
    291 LPL/Spacewatch II.  Observer R. A. Mastaler.  1.8-m f/2.7 reflector + CCD.
    G96 Mt. Lemmon Survey.  Observers A. D. Grauer, W. A. Chapman.  Measurers
        E. J. Christensen, A. R. Gibbs, A. D. Grauer, R. E. Hill, J. A. Johnson,
        R. A. Kowalski, S. M. Larson, R. J. Sanders, F. C. Shelly.  1.5-m
        reflector + CCD.
    H21 Astronomical Research Observatory, Westfield.  Observer R. Holmes.
        Measurers S. Foglia, L. Buzzi, T. Linder, T. Lister, T. Vorobjov.  0.61-m
        f/4.0 astrograph + CCD.
    I52 Steward Observatory, Mt. Lemmon Station.  Observer A. R. Gibbs.  Measurers
        E. J. Christensen, A. R. Gibbs, A. D. Grauer, R. E. Hill, J. A. Johnson,
        R. A. Kowalski, S. M. Larson, R. J. Sanders, F. C. Shelly.  1.0-m
        reflector + CCD.
    I93 St Pardon de Conques.  Observer F. Losse.  0.40-m f/3.7 reflector + CCD.
    
    Orbital elements:
    2014 MY                                                  Earth MOID = 0.0602 AU
    Epoch 2014 May 23.0 TT = JDT 2456800.5                  MPC
    M 349.05460              (2000.0)            P               Q
    n   0.20928124     Peri.   64.61549     +0.45213375     +0.89023335
    a   2.8096303      Node   232.37747     -0.84139569     +0.40510498
    e   0.6339944      Incl.    4.00461     -0.29602089     +0.20826555
    P   4.71           H   24.6           G   0.15           U   7
    Residuals in seconds of arc
    140618 G96  0.3-  0.5+    140618 I93  0.2-  0.4-    140619 291  0.1+  0.1+
    140618 G96  0.4-  0.2+    140619 I52  0.2+  0.5-    140619 H21  0.1+  0.1+
    140618 G96  0.1-  0.6+    140619 I52  0.0   0.1-    140619 H21  0.1+  0.4+
    140618 G96  0.5-  0.1+    140619 I52  0.4+  0.0     140620 291  0.3-  0.4+
    140618 G96  0.7+  1.2-    140619 I52  0.2-  0.2+    140620 291  0.0   0.2-
    140618 G96  0.5+  0.2-    140619 I52  0.4-  0.2-    140620 291  0.0   0.2-
    140618 G96  0.1-  0.3-    140619 I52  0.3-  0.4+    140620 I52  1.0+  0.5+
    140618 G96  0.1-  0.8+    140619 I52  0.5-  0.0     140620 I52  0.1-  0.3+
    140618 I93  0.2-  0.6-    140619 291  0.5+  0.4-    140620 I52  0.4-  0.6-
    140618 I93  0.1+  0.3+    140619 291  0.0   0.2+
    
    Ephemeris:
    2014 MY                  a,e,i = 2.81, 0.63, 4                   q = 1.0283
    Date    TT    R. A. (2000) Decl.     Delta      r     Elong.  Phase     V
    2014 05 21    15 54 08.1 -17 32 29   0.2391  1.2508   177.3     2.2    22.2
    ...
    2014 06 05    16 22 54.3 -09 53 47   0.1427  1.1533   165.7    12.5    21.4
    ...
    2014 06 13    16 58 50.8 -01 09 55   0.1020  1.1102   157.2    20.8    20.9
    ...
    2014 06 19    17 48 30.2 +09 58 00   0.07898 1.0829   146.6    31.1    20.6
    2014 06 20    17 59 45.0 +12 17 59   0.07610 1.0788   144.2    33.4    20.6
    2014 06 21    18 12 02.4 +14 45 02   0.07356 1.0749   141.6    35.9    20.6
    ...
    2014 06 27    19 48 56.0 +29 53 59   0.06697 1.0544   122.8    54.1    20.8
    ...
    2014 07 05    22 19 41.8 +39 33 54   0.08126 1.0359   101.5    74.1    21.8
    ...
    2014 07 20    00 39 14.9 +36 16 14   0.1397  1.0311    92.2    80.0    23.2
    
    A. U. Tomatic                (C) Copyright 2014 MPC           M.P.E.C. 2014-M16
    

    Read MPEC 2014-M15 Read MPEC 2014-M17


    MPEC number:

    Enter an MPEC number in one of the following forms:

    • 1997-B01 (the full form)
    • J97B01 (the packed version of the full form)
    • B01 (the abbreviated form)